Weather History for KGAO - April, 2013

Change the Weather History Date:

Monday, April 22, 2013

  Actual Average (KAXO) Record (KAXO)
Temperature  
Mean Temperature 68 °F -  
Max Temperature 79 °F 72 °F 82 °F (2008)
Min Temperature 58 °F 68 °F 59 °F (2012)
Cooling Degree Days 3    
Growing Degree Days 18 (Base 50)    
Moisture  
Dew Point 63 °F    
Average Humidity 82    
Maximum Humidity 98    
Minimum Humidity 66    
Precipitation  
Precipitation 0.00 in - - ()
Sea Level Pressure  
Sea Level Pressure 30.07 in    
Wind  
Wind Speed 7 mph (NE)    
Max Wind Speed 14 mph    
Max Gust Speed 18 mph    
Visibility 10 miles    
Events      
Averages and records for this station are not official NWS values.
T = Trace of Precipitation, MM = Missing Value Source: NWS Daily Summary

Daily Weather History Graph

Daily Weather History Graph

Search for Another Location

Airport or City:

Trip Planner

Search our weather history database for the weather conditions in past years. The results will help you decide how hot, cold, wet, or windy it might be!

Date:

Astronomy

Apr. 22, 2013 Rise Set
Actual Time 6:27 AM CDT 7:32 PM CDT
Civil Twilight 6:02 AM CDT 7:56 PM CDT
Nautical Twilight 5:33 AM CDT 8:26 PM CDT
Astronomical Twilight 5:03 AM CDT 8:56 PM CDT
Moon 4:34 PM CDT (4/22) 4:06 AM CDT (4/22)
Length of Visible Light 13h 54m
Length of Day
13h 04m
Waxing Gibbous, 88% of the Moon is Illuminated
Apr 22
Waxing Gibbous
Apr 25
Full
May 2
Last Quarter
May 9
New
May 17
First Quarter

Hourly Weather History & Observations

Time (CDT) Temp. Dew Point Humidity Pressure Visibility Wind Dir Wind Speed Gust Speed Precip Events Conditions
12:15 AM 60.8 °F 57.2 °F 88% 30.11 in 10.0 mi NNE 3.5 mph - N/A   Unknown
12:35 AM 61.0 °F 57.7 °F 89% 30.11 in 10.0 mi NNE 4.6 mph - N/A   Unknown
12:55 AM 61.3 °F 58.1 °F 89% 30.11 in 10.0 mi NNE 4.6 mph - N/A   Unknown
1:15 AM 61.9 °F 58.1 °F 87% 30.10 in 10.0 mi North 4.6 mph - N/A   Unknown
1:35 AM 61.7 °F 58.1 °F 88% 30.10 in 10.0 mi NNE 3.5 mph - N/A   Unknown
1:55 AM 61.7 °F 58.1 °F 88% 30.09 in 10.0 mi NNE 4.6 mph - N/A   Unknown
2:15 AM 60.8 °F 57.7 °F 90% 30.08 in 10.0 mi NNE 3.5 mph - N/A   Unknown
2:35 AM 61.0 °F 58.5 °F 91% 30.07 in 10.0 mi NNE 4.6 mph - N/A   Unknown
2:55 AM 61.0 °F 58.5 °F 91% 30.07 in 10.0 mi NNE 4.6 mph - N/A   Unknown
3:15 AM 61.7 °F 58.5 °F 89% 30.06 in 10.0 mi NNE 4.6 mph - N/A   Unknown
3:35 AM 61.9 °F 59.0 °F 90% 30.06 in 10.0 mi NNE 5.8 mph - N/A   Unknown
3:55 AM 62.1 °F 59.2 °F 90% 30.05 in 10.0 mi North 5.8 mph - N/A   Unknown
4:15 AM 62.1 °F 59.5 °F 91% 30.05 in 10.0 mi North 5.8 mph - N/A   Unknown
4:35 AM 62.2 °F 59.7 °F 91% 30.05 in 10.0 mi North 5.8 mph - N/A   Unknown
4:55 AM 62.2 °F 59.5 °F 91% 30.05 in 10.0 mi North 5.8 mph - N/A   Unknown
5:15 AM 62.4 °F 59.5 °F 90% 30.06 in 10.0 mi NNW 4.6 mph - N/A   Unknown
5:35 AM 59.2 °F 57.7 °F 95% 30.06 in 10.0 mi North 4.6 mph - N/A   Unknown
5:55 AM 58.8 °F 57.6 °F 96% 30.07 in 10.0 mi North 5.8 mph - N/A   Unknown
6:15 AM 59.4 °F 58.8 °F 98% 30.08 in 10.0 mi NNW 4.6 mph - N/A   Unknown
6:35 AM 59.9 °F 59.0 °F 97% 30.09 in 10.0 mi North 8.1 mph - N/A   Unknown
6:55 AM 60.8 °F 59.7 °F 96% 30.09 in 10.0 mi North 6.9 mph - N/A   Unknown
7:15 AM 61.9 °F 59.4 °F 91% 30.10 in 10.0 mi North 8.1 mph - N/A   Unknown
7:35 AM 63.1 °F 59.2 °F 87% 30.10 in 10.0 mi North 9.2 mph - N/A   Unknown
7:55 AM 64.6 °F 59.9 °F 85% 30.11 in 10.0 mi North 9.2 mph - N/A   Unknown
8:15 AM 65.7 °F 59.7 °F 81% 30.11 in 10.0 mi North 8.1 mph - N/A   Unknown
8:35 AM 66.4 °F 60.3 °F 81% 30.11 in 10.0 mi North 8.1 mph - N/A   Unknown
8:55 AM 67.3 °F 59.9 °F 77% 30.11 in 10.0 mi North 9.2 mph - N/A   Unknown
9:15 AM 68.2 °F 60.4 °F 76% 30.11 in 10.0 mi North 9.2 mph - N/A   Unknown
9:35 AM 69.1 °F 60.4 °F 74% 30.11 in 10.0 mi North 10.4 mph - N/A   Unknown
9:55 AM 70.5 °F 61.2 °F 72% 30.11 in 10.0 mi North 12.7 mph - N/A   Unknown
10:15 AM 71.1 °F 61.3 °F 71% 30.12 in 10.0 mi NNE 9.2 mph - N/A   Unknown
10:35 AM 72.5 °F 62.8 °F 71% 30.12 in 10.0 mi NNE 6.9 mph - N/A   Unknown
10:55 AM 72.9 °F 62.6 °F 70% 30.12 in 10.0 mi NNE 8.1 mph - N/A   Unknown
11:15 AM 73.9 °F 63.0 °F 68% 30.12 in 10.0 mi NNE 6.9 mph - N/A   Unknown
11:35 AM 75.6 °F 64.0 °F 67% 30.12 in 10.0 mi NNE 10.4 mph - N/A   Unknown
11:55 AM 76.5 °F 64.6 °F 67% 30.11 in 10.0 mi North 8.1 mph - N/A   Unknown
12:15 PM 76.6 °F 65.8 °F 69% 30.10 in 10.0 mi NNE 8.1 mph - N/A   Unknown
12:35 PM 75.4 °F 66.0 °F 73% 30.10 in 10.0 mi NNE 10.4 mph - N/A   Unknown
12:55 PM 75.9 °F 66.4 °F 72% 30.09 in 10.0 mi NNE 10.4 mph - N/A   Unknown
1:15 PM 77.9 °F 66.9 °F 69% 30.09 in 10.0 mi NE 9.2 mph - N/A   Unknown
1:35 PM 77.9 °F 66.2 °F 67% 30.08 in 10.0 mi NNE 8.1 mph - N/A   Unknown
1:55 PM 77.7 °F 66.9 °F 69% 30.08 in 10.0 mi NE 9.2 mph - N/A   Unknown
2:15 PM 77.9 °F 66.4 °F 68% 30.07 in 10.0 mi NE 8.1 mph - N/A   Unknown
2:35 PM 77.9 °F 66.6 °F 68% 30.07 in 10.0 mi NE 10.4 mph - N/A   Unknown
2:55 PM 78.8 °F 66.7 °F 66% 30.06 in 10.0 mi NE 9.2 mph - N/A   Unknown
3:15 PM 77.5 °F 66.4 °F 68% 30.06 in 10.0 mi NE 9.2 mph - N/A   Unknown
3:35 PM 78.8 °F 68.0 °F 69% 30.05 in 10.0 mi NE 10.4 mph - N/A   Unknown
3:55 PM 75.9 °F 67.5 °F 75% 30.04 in 10.0 mi NE 8.1 mph - N/A   Unknown
4:15 PM 76.5 °F 67.5 °F 74% 30.04 in 10.0 mi ENE 10.4 mph 16.1 mph N/A   Unknown
4:35 PM 77.9 °F 67.6 °F 71% 30.03 in 10.0 mi East 10.4 mph 16.1 mph N/A   Unknown
4:55 PM 76.3 °F 67.3 °F 74% 30.04 in 10.0 mi ENE 12.7 mph - N/A   Unknown
5:15 PM 76.1 °F 68.0 °F 76% 30.03 in 10.0 mi East 13.8 mph 18.4 mph N/A   Unknown
5:35 PM 75.4 °F 68.0 °F 78% 30.03 in 10.0 mi ENE 11.5 mph 18.4 mph N/A   Unknown
5:55 PM 75.2 °F 68.0 °F 78% 30.03 in 10.0 mi East 10.4 mph - N/A   Unknown
6:15 PM 74.3 °F 67.3 °F 79% 30.03 in 10.0 mi East 12.7 mph 17.3 mph N/A   Unknown
6:35 PM 73.4 °F 67.6 °F 82% 30.03 in 10.0 mi ENE 9.2 mph - N/A   Unknown
6:55 PM 72.7 °F 67.6 °F 84% 30.03 in 10.0 mi East 9.2 mph - N/A   Unknown
7:15 PM 72.0 °F 67.6 °F 86% 30.03 in 10.0 mi ENE 8.1 mph 16.1 mph N/A   Unknown
7:35 PM 71.6 °F 67.6 °F 87% 30.03 in 10.0 mi East 6.9 mph - N/A   Unknown
7:55 PM 71.1 °F 68.0 °F 90% 30.04 in 10.0 mi East 8.1 mph - N/A   Unknown
8:15 PM 71.1 °F 68.2 °F 91% 30.04 in 10.0 mi ENE 10.4 mph - N/A   Unknown
8:35 PM 70.9 °F 68.0 °F 91% 30.05 in 10.0 mi East 9.2 mph 16.1 mph N/A   Unknown
8:55 PM 70.7 °F 67.6 °F 90% 30.05 in 10.0 mi East 9.2 mph - N/A   Unknown
9:15 PM 70.7 °F 68.0 °F 91% 30.05 in 10.0 mi East 10.4 mph - N/A   Unknown
9:35 PM 70.7 °F 67.5 °F 89% 30.06 in 10.0 mi East 12.7 mph 17.3 mph N/A   Unknown
9:55 PM 70.7 °F 67.3 °F 89% 30.06 in 10.0 mi East 9.2 mph 16.1 mph N/A   Unknown
10:15 PM 70.3 °F 67.5 °F 91% 30.06 in 10.0 mi East 9.2 mph - N/A   Unknown
10:35 PM 70.5 °F 67.3 °F 89% 30.06 in 10.0 mi East 13.8 mph 18.4 mph N/A   Unknown
10:55 PM 70.3 °F 67.5 °F 91% 30.06 in 10.0 mi East 11.5 mph - N/A   Unknown
11:15 PM 70.2 °F 67.3 °F 91% 30.06 in 10.0 mi East 11.5 mph - N/A   Unknown
11:35 PM 70.2 °F 67.3 °F 91% 30.06 in 10.0 mi East 11.5 mph 17.3 mph N/A   Unknown
11:55 PM 70.2 °F 67.5 °F 91% 30.06 in 10.0 mi East 8.1 mph - N/A   Unknown